Location: Schommer Observatory
(40.5200°N, 74.4500°W)
Time: 02:14:53
(UTC-04:00)

Tiangong 2 - Pass Details

Date: 17 May 2018
Orbit: 382 x 385 km, 42.8° (Epoch: 23 May)

Event Time Altitude Azimuth Distance (km) Brightness Sun altitude
Exits shadow 04:07:11 21° 283° (WNW) 910 2.6 -15.2°
Maximum altitude 04:09:06 80° 200° (SSW) 391 0.9 -14.9°
Drops below altitude 10° 04:12:15 10° 111° (ESE) 1,398 4.2 -14.5°
Sets 04:14:19 0° 111° (ESE) 2,249 5.3 -14.2°
